Location: Unspecified
(42.1900°N, 71.3291°W)
Time: 09:50:30
(UTC-04:00)

Cosmos 2058 - Visible Passes

Search period start: 23 April 2017 00:00
Search period end: 03 May 2017 00:00
Orbit: 563 x 586 km, 82.5° (Epoch: 21 April)

Date Brightness Start Highest point End Pass type
(mag) Time Alt. Az. Time Alt. Az. Time Alt. Az.
29 Apr 6.1 05:07:09 10° ESE 05:09:11 13° E 05:11:12 10° NE visible
30 Apr 5.9 05:09:40 10° SE 05:12:27 18° E 05:15:14 10° NE visible
01 May 5.6 05:12:28 10° SE 05:15:45 23° E 05:19:02 10° NE visible
